[[{"header":{"parameterUnit":"m.s-1","parameterCategory":1,"la1":30.2992,"la2":30.254,"lo1":-89.0895,"lo2":-89.0443,"dy":0.0025,"dx":0.0025,"nx":19,"ny":19,"refTime":"2026-03-08T09:00:00:Z","depth":0,"parameterNumber":2,"parameterNumberName":"U-component_of_WINDS"},"data":[0,0,0,-0.1433,-0.1432,-0.1377,-0.1377,-0.1323,-0.1322,0,0,0,0,0,0,0,0,0,0,0,-0.1457,-0.1457,-0.1433,-0.1432,-0.1377,-0.1377,-0.1323,-0.1322,0,0,0,0,0,0,0,0,0,0,0,-0.1457,-0.1457,-0.1457,-0.1431,-0.1377,-0.1377,-0.1323,-0.1358,0,0,0,0,0,0,0,0,0,0,-0.1409,-0.144,-0.1457,-0.1457,-0.1431,-0.1377,-0.1377,-0.136,-0.1356,-0.1354,0,-0.1353,0,-0.1337,-0.1319,-0.1319,0,0,0,-0.1425,-0.1443,-0.142,-0.1457,-0.1431,-0.1377,-0.14,-0.1358,-0.1354,-0.1349,-0.1352,-0.1349,-0.1336,-0.1319,-0.1319,-0.1324,-0.1324,0,0,-0.1428,-0.1452,-0.1423,-0.1418,-0.1427,-0.1402,-0.1398,-0.1355,-0.136,-0.1352,-0.1348,-0.1335,-0.1319,-0.1319,-0.1324,-0.1324,0,0,0,-0.1441,-0.1455,-0.1433,-0.1421,-0.141,-0.14,-0.1396,-0.1362,-0.1353,-0.1347,-0.1334,-0.1319,-0.1318,-0.1323,-0.1324,-0.1363,0,0,0,-0.1443,-0.1462,-0.1434,-0.1449,-0.1411,-0.1385,-0.1405,-0.1356,-0.135,-0.1335,-0.1319,-0.1318,-0.1323,-0.1323,-0.1361,-0.1378,0,0,0,-0.1458,-0.1464,-0.1459,-0.145,-0.1427,-0.1385,-0.1373,-0.1354,-0.1343,-0.1319,-0.1318,-0.1322,-0.1323,-0.136,-0.1375,-0.1387,0,0,0,-0.1481,-0.1494,-0.146,-0.1469,-0.1428,-0.141,-0.1373,-0.1359,-0.1343,-0.1319,-0.1323,-0.1324,-0.1359,-0.1373,-0.1386,-0.1402,-0.1411,0,0,-0.1511,-0.1498,-0.1502,-0.147,-0.1464,-0.1416,-0.1416,-0.1379,-0.1355,-0.1336,-0.1336,-0.1362,-0.1375,-0.1387,-0.1451,-0.1459,0,0,0,-0.1519,-0.1523,-0.1516,-0.1502,-0.1474,-0.1452,-0.1413,-0.1399,-0.1382,-0.135,-0.1368,-0.1375,-0.1381,-0.1388,-0.1395,-0.1399,-0.1328,-0.1327,-0.1327,-0.1596,-0.1565,-0.1569,-0.1532,-0.1519,-0.1479,-0.1466,-0.1441,-0.1412,-0.1418,-0.1412,-0.1455,-0.1464,-0.1468,-0.1473,-0.1417,-0.1418,-0.1418,-0.1418,-0.1637,-0.1637,-0.16,-0.1591,-0.1558,-0.155,-0.1513,-0.1493,-0.1482,-0.1456,-0.146,-0.1436,-0.1477,-0.148,-0.142,-0.142,-0.142,-0.1419,-0.1419,-0.1685,-0.168,-0.1663,-0.1641,-0.1627,-0.1589,-0.158,-0.155,-0.1522,-0.1525,-0.1517,-0.1517,-0.1513,-0.1523,-0.1524,-0.1524,-0.1524,-0.1524,-0.1524,-0.1742,-0.1721,-0.1717,-0.1689,-0.1677,-0.1658,-0.1618,-0.1606,-0.1584,-0.1563,-0.1563,-0.1536,-0.1487,-0.1476,-0.1526,-0.1526,-0.1526,-0.1525,-0.1525,-0.1797,-0.178,-0.1774,-0.1762,-0.1727,-0.1717,-0.1679,-0.1656,-0.1641,-0.1638,-0.161,-0.1578,-0.1564,-0.1559,-0.1549,-0.1616,-0.1616,-0.1616,-0.1616,-0.1839,-0.1828,-0.1816,-0.1799,-0.1778,-0.1743,-0.1739,-0.1709,-0.1675,-0.1664,-0.165,-0.1635,-0.1631,-0.1619,-0.1612,-0.1603,-0.1682,-0.1682,-0.1682,-0.1872,-0.1858,-0.186,-0.1826,-0.1797,-0.1773,-0.1768,-0.1751,-0.1709,-0.1684,-0.1655,-0.1653,-0.1628,-0.1621,-0.1597,-0.1588,-0.1571,0,0]},{"header":{"parameterUnit":"m.s-1","parameterCategory":1,"la1":30.2992,"la2":30.254,"lo1":-89.0895,"lo2":-89.0443,"dy":0.0025,"dx":0.0025,"nx":19,"ny":19,"refTime":"2026-03-08T09:00:00:Z","depth":0,"parameterNumber":3,"parameterNumberName":"V-component_of_WINDS"},"data":[0,0,0,1.874,1.8738,1.8631,1.863,1.8501,1.85,0,0,0,0,0,0,0,0,0,0,0,1.8776,1.8775,1.874,1.8738,1.8631,1.863,1.8501,1.85,0,0,0,0,0,0,0,0,0,0,0,1.8776,1.8775,1.8774,1.8737,1.8631,1.863,1.8502,1.858,0,0,0,0,0,0,0,0,0,0,1.8683,1.8718,1.8775,1.8774,1.8737,1.8631,1.863,1.8583,1.8575,1.8553,0,1.8533,0,1.8515,1.8492,1.8491,0,0,0,1.8735,1.8725,1.8694,1.8774,1.8736,1.8631,1.8678,1.8579,1.8569,1.8541,1.8531,1.8526,1.8513,1.8491,1.849,1.8373,1.8373,0,0,1.8741,1.8758,1.87,1.8688,1.8704,1.8682,1.8675,1.8573,1.8563,1.8531,1.8523,1.851,1.849,1.8489,1.8374,1.8373,0,0,0,1.876,1.8762,1.8733,1.8693,1.8673,1.8679,1.8671,1.8567,1.8556,1.8522,1.8509,1.8489,1.8488,1.8374,1.8374,1.8371,0,0,0,1.8763,1.8773,1.8735,1.8745,1.8675,1.8619,1.8668,1.8563,1.8551,1.851,1.8489,1.8487,1.8375,1.8374,1.8372,1.8367,0,0,0,1.8781,1.8775,1.8761,1.8746,1.8701,1.862,1.8603,1.856,1.8544,1.8491,1.8486,1.8375,1.8374,1.8373,1.8368,1.8343,0,0,0,1.8805,1.8758,1.8762,1.8705,1.8702,1.8619,1.8603,1.854,1.8495,1.8489,1.8374,1.8374,1.8373,1.8369,1.8344,1.8325,1.8319,0,0,1.8756,1.8753,1.8718,1.8718,1.864,1.8634,1.8556,1.8497,1.8476,1.8409,1.8406,1.8372,1.8368,1.8343,1.8275,1.827,0,0,0,1.8709,1.8684,1.866,1.8618,1.8574,1.8536,1.8488,1.8468,1.841,1.8445,1.8355,1.8352,1.8337,1.8327,1.8323,1.8309,1.837,1.837,1.837,1.8662,1.864,1.8582,1.8548,1.8508,1.8462,1.8428,1.8392,1.8378,1.8358,1.8338,1.83,1.8289,1.8286,1.8272,1.8326,1.8326,1.8326,1.8326,1.8588,1.8551,1.8538,1.8478,1.8455,1.8404,1.8359,1.8353,1.8303,1.8312,1.8297,1.831,1.8281,1.8268,1.8325,1.8325,1.8325,1.8325,1.8325,1.8556,1.8534,1.8511,1.8452,1.8409,1.8377,1.8331,1.8311,1.8292,1.8278,1.8256,1.8256,1.8255,1.8269,1.8269,1.8269,1.8269,1.8268,1.8268,1.8531,1.8505,1.8469,1.8421,1.8395,1.8357,1.8313,1.8286,1.8251,1.8241,1.8241,1.8232,1.8282,1.8296,1.8266,1.8267,1.8267,1.8267,1.8267,1.8465,1.8478,1.8422,1.8396,1.834,1.8301,1.8278,1.8226,1.8201,1.818,1.8175,1.8215,1.8211,1.8214,1.8225,1.8179,1.8179,1.8179,1.8179,1.8438,1.8435,1.8376,1.8335,1.8293,1.8268,1.8209,1.8176,1.8143,1.8127,1.8131,1.8145,1.8149,1.8142,1.8147,1.8157,1.8094,1.8094,1.8094,1.8398,1.839,1.8342,1.8312,1.8268,1.8232,1.8176,1.8132,1.8098,1.809,1.8115,1.8119,1.814,1.8148,1.814,1.8148,1.8166,0,0]}]]